Location: Unspecified
(51.0950°N, 12.9690°E)
Time: 21:39:57
(UTC+00:00)

USA 229 DEB - Pass Details

Date: 28 October 2021
Orbit: 944 x 1268 km, 63.4° (Epoch: 25 November)

Event Time Altitude Azimuth Distance (km) Brightness Sun altitude
Rises 18:08:08 0° 236° (SW) 3,659 7.3 -22.3°
Reaches altitude 10° 18:10:39 10° 240° (WSW) 2,744 6.6 -22.7°
Maximum altitude 18:17:03 64° 321° (NW) 1,143 3.9 -23.7°
Enters shadow 18:21:39 22° 38° (NE) 2,162 5.0 -24.4°
